Temp
89 87 87 85 85 82 83 82 80 80 77 76 78 78 78 78 78 76 75 75 75 74 73 73 74 73 72 72 72 71 71 70 71
85 87 86 85 84 82 81 80 79 79 78 76 77 78 77 77 77 77 75 76 76 73 72 74 72 72 71 70 69 69 68 67 67
82 85 85 84 84 82 82 80 79 80 79 77 77 78 78 78 77 76 76 74 72 71 71 71 71 70 70 70 69 69 67 65 66
84 84 84 84 84 83 82 80 80 78 77 77 78 80 79 77 76 76 74 73 71 71 71 70 70 70 69 69 68 68 67 66 67
86 85 84 84 84 83 82 80 80 80 79 80 80 80 79 78 76 75 72 71 70 70 70 70 70 70 69 69 68 68 67 66 67
83 84 83 83 83 82 81 80 80 81 81 81 79 78 79 76 75 72 71 70 70 70 70 69 71 70 69 68 69 68 68 67 66
71 83 83 83 82 81 80 79 79 80 78 78 80 79 76 72 74 72 71 70 69 69 69 69 69 70 69 69 69 69 69 67 66
79 83 83 83 82 81 79 78 79 80 79 79 80 77 75 71 72 71 69 69 69 69 69 70 69 69 69 69 69 72 66 66 64
82 83 85 84 84 82 81 81 80 81 79 78 80 75 73 72 71 70 68 67 67 68 68 69 69 68 68 68 73 69 71 67 63
83 85 86 85 83 83 83 82 82 80 76 79 78 74 74 72 71 68 67 67 67 66 67 67 67 67 67 66 65 68 69 69 62
81 83 83 84 84 84 84 83 82 82 78 76 76 72 72 70 70 67 67 66 65 66 66 66 66 66 67 66 66 66 67 68 62
82 83 81 81 85 85 83 83 82 80 77 76 72 69 69 68 69 67 66 65 65 66 66 66 66 67 66 65 64 63 65 64 61
83 79 76 81 86 86 84 81 80 78 75 74 71 70 68 69 68 67 66 66 66 66 66 66 66 66 66 66 63 61 62 62 60
81 78 74 75 75 66 66 67 64 62 71 70 71 70 70 69 69 68 68 67 67 66 65 64 64 64 64 65 64 61 60 61 58
77 72 72 70 66 66 68 67 64 62 65 69 69 69 68 68 69 70 69 67 66 65 63 63 62 62 62 63 64 62 59 59 59
71 71 69 69 65 64 65 63 64 64 65 69 69 69 69 69 69 68 67 65 64 63 63 62 61 61 60 61 63 62 60 58 58
72 71 68 68 67 62 63 65 66 65 66 68 67 67 68 67 66 67 66 66 65 63 62 61 61 60 60 60 60 60 58 57 55
71 71 69 69 67 65 65 65 64 65 66 69 68 67 67 67 67 66 66 65 65 64 64 64 62 62 62 61 58 60 58 57 57
72 71 68 68 69 66 66 67 66 67 69 69 68 66 66 66 66 66 65 64 64 61 60 59 58 58 60 60 60 55 55 55 55
66 67 67 66 67 67 67 67 67 67 68 68 67 65 66 66 66 65 64 64 63 63 64 54 53 51 51 51 57 53 51 50 50
MSLP
1002.69 1003.50 1004.37 1005.38 1006.32 1007.27 1008.07 1008.82 1009.62 1010.34 1011.04 1011.54 1011.96 1012.32 1012.65 1012.91 1013.22 1013.63 1013.91 1014.20 1014.55 1014.89 1015.14 1015.44 1015.40 1015.59 1015.59 1015.65 1015.67 1015.89 1016.01 1016.18 1016.19
1002.76 1003.47 1004.35 1005.29 1006.29 1007.17 1008.03 1008.77 1009.43 1010.10 1010.77 1011.30 1011.77 1012.12 1012.44 1012.79 1013.09 1013.49 1013.91 1014.16 1014.46 1014.94 1015.13 1015.45 1015.56 1015.63 1015.91 1016.01 1016.17 1016.21 1016.42 1016.45 1016.39
1002.86 1003.13 1003.95 1005.00 1006.01 1006.97 1007.78 1008.45 1009.21 1009.89 1010.52 1011.04 1011.42 1011.73 1012.18 1012.65 1013.07 1013.43 1013.87 1014.25 1014.67 1014.94 1015.22 1015.43 1015.69 1015.96 1016.11 1016.20 1016.32 1016.37 1016.42 1016.57 1016.63
1002.98 1003.71 1004.37 1004.77 1005.64 1006.64 1007.54 1008.25 1009.16 1009.69 1010.37 1010.87 1011.16 1011.35 1011.77 1012.33 1012.88 1013.36 1013.91 1014.35 1014.75 1015.00 1015.15 1015.40 1015.65 1015.92 1016.15 1016.22 1016.38 1016.53 1016.55 1016.53 1016.56
1002.39 1003.04 1003.85 1004.81 1005.51 1006.27 1007.32 1008.17 1008.95 1009.54 1009.96 1010.40 1010.69 1010.92 1011.47 1012.07 1012.76 1013.26 1013.86 1014.36 1014.76 1015.04 1015.35 1015.57 1015.76 1016.00 1016.28 1016.33 1016.39 1016.52 1016.59 1016.60 1016.67
1002.79 1003.10 1003.98 1004.77 1005.45 1006.19 1007.00 1007.84 1008.60 1009.10 1009.63 1009.90 1010.15 1010.60 1011.30 1011.94 1012.78 1013.33 1013.94 1014.42 1014.84 1015.16 1015.40 1015.63 1015.78 1016.13 1016.36 1016.39 1016.35 1016.35 1016.46 1016.52 1016.48
1002.65 1003.97 1003.64 1004.25 1005.14 1005.59 1006.39 1007.24 1007.99 1008.52 1008.96 1009.23 1009.75 1010.39 1011.12 1011.78 1012.63 1013.18 1013.73 1014.33 1014.83 1015.16 1015.47 1015.64 1015.81 1015.96 1016.15 1016.19 1016.22 1016.32 1016.41 1016.58 1016.49
1002.17 1003.04 1002.99 1003.54 1004.30 1004.78 1005.53 1006.39 1007.11 1007.58 1008.10 1008.58 1009.19 1010.07 1010.93 1011.57 1011.90 1012.60 1013.22 1013.86 1014.38 1014.84 1015.20 1015.45 1015.63 1015.74 1015.86 1015.94 1016.20 1016.24 1016.47 1016.69 1016.73
1001.76 1001.93 1002.06 1002.45 1003.03 1003.68 1004.43 1005.32 1006.27 1006.99 1007.72 1008.29 1008.85 1009.75 1010.59 1011.36 1012.03 1012.68 1013.20 1013.62 1014.05 1014.45 1014.82 1015.09 1015.34 1015.55 1015.66 1015.84 1016.19 1016.27 1016.49 1016.71 1016.76
1000.66 1000.86 1001.14 1001.59 1002.05 1002.93 1003.71 1004.48 1005.60 1006.83 1007.91 1008.81 1009.48 1010.17 1010.90 1011.41 1012.08 1012.91 1013.45 1013.87 1014.40 1014.60 1014.80 1014.95 1015.23 1015.40 1015.55 1015.80 1016.09 1016.31 1016.50 1016.62 1016.72
1000.40 1000.63 1001.03 1001.23 1001.96 1002.51 1003.30 1004.02 1005.23 1006.38 1007.48 1008.70 1009.78 1010.58 1011.10 1011.67 1012.46 1013.19 1013.94 1014.39 1014.72 1014.69 1014.62 1014.69 1015.03 1015.29 1015.39 1015.54 1015.89 1016.15 1016.38 1016.61 1016.65
1000.85 1000.83 1001.02 1001.39 1000.92 1001.58 1002.59 1003.31 1004.19 1005.54 1007.31 1008.29 1009.66 1010.84 1011.75 1012.10 1012.41 1013.31 1014.40 1014.95 1014.98 1014.77 1014.54 1014.41 1014.43 1014.67 1015.18 1015.51 1015.67 1016.05 1016.39 1016.66 1016.71
1001.38 1001.86 1001.72 1001.12 1001.13 1001.76 1003.14 1004.74 1003.90 1005.26 1006.19 1007.50 1009.33 1010.36 1011.62 1011.63 1012.58 1012.61 1013.26 1013.90 1014.34 1014.40 1014.76 1014.59 1014.39 1014.41 1014.48 1014.97 1015.57 1015.80 1016.19 1016.44 1016.67
1002.29 1002.90 1002.83 1002.03 1002.05 1004.10 1005.87 1006.41 1006.63 1010.89 1008.02 1006.83 1007.96 1009.69 1011.07 1011.29 1012.26 1012.66 1013.33 1014.12 1014.34 1014.66 1014.59 1014.74 1014.74 1014.70 1014.48 1014.69 1015.11 1015.48 1015.89 1016.24 1016.42
1003.05 1003.81 1004.41 1004.24 1004.34 1005.31 1005.35 1004.74 1007.87 1011.74 1008.89 1006.74 1009.99 1010.86 1011.75 1012.26 1013.07 1013.06 1013.30 1013.94 1014.31 1014.62 1014.98 1014.98 1014.72 1014.75 1014.67 1014.57 1014.73 1014.97 1015.38 1015.80 1016.10
1004.17 1004.88 1005.90 1005.91 1005.43 1005.39 1006.26 1007.14 1008.87 1010.85 1009.87 1010.17 1010.50 1009.66 1011.42 1012.14 1012.79 1013.23 1013.62 1013.78 1014.30 1014.96 1015.12 1014.76 1014.53 1014.53 1014.49 1014.40 1014.44 1014.57 1014.72 1015.27 1015.78
1005.02 1006.18 1007.07 1007.61 1007.72 1007.61 1007.65 1008.09 1008.51 1008.02 1009.68 1009.81 1010.03 1011.36 1011.49 1011.69 1012.66 1013.24 1013.69 1013.55 1013.94 1014.57 1014.63 1014.47 1014.15 1014.07 1014.26 1014.10 1014.09 1014.42 1014.78 1015.24 1015.58
1006.04 1006.85 1008.15 1008.64 1009.03 1009.71 1010.09 1010.07 1010.33 1010.48 1010.25 1010.33 1011.21 1011.43 1011.71 1012.41 1012.43 1012.78 1012.95 1013.27 1013.68 1014.00 1013.58 1013.60 1013.45 1013.30 1013.33 1013.56 1013.97 1013.96 1014.26 1014.78 1015.23
1006.53 1007.31 1008.27 1008.75 1009.31 1010.09 1011.11 1010.80 1010.06 1009.96 1010.06 1010.13 1010.78 1011.40 1011.94 1012.19 1012.06 1012.41 1012.41 1013.01 1012.96 1012.95 1012.73 1012.65 1012.55 1012.63 1012.79 1013.08 1013.24 1013.37 1013.72 1014.13 1014.54
1007.42 1008.14 1008.88 1009.44 1009.37 1009.02 1010.01 1010.62 1010.18 1009.96 1010.01 1010.47 1010.95 1011.47 1011.64 1011.70 1012.00 1012.03 1012.02 1012.55 1012.95 1012.76 1012.25 1012.27 1012.29 1012.66 1012.55 1012.86 1013.23 1013.60 1014.21 1014.50 1014.74
Wind_Speed
16 17 14 14 15 14 13 13 15 13 11 8 8 7 7 6 6 3 4 4 3 3 3 4 5 5 5 5 5 5 5 3 4
10 18 16 15 14 15 12 11 12 14 12 8 8 8 6 5 5 5 6 5 4 5 5 4 6 5 5 6 6 5 5 4 5
10 14 18 15 14 14 11 9 10 13 11 10 8 8 7 6 7 7 6 6 7 7 6 5 6 4 5 5 4 4 4 3 3
15 15 15 16 14 14 12 9 12 11 9 9 9 9 8 8 8 7 7 6 5 6 5 5 6 4 4 3 5 4 3 3 3
16 17 15 14 15 16 14 11 12 12 10 10 9 9 10 11 8 8 7 7 6 6 4 4 4 4 3 2 5 3 2 4 4
7 15 13 13 15 14 14 12 12 12 11 10 9 10 11 10 8 8 8 7 6 5 4 4 5 4 4 2 3 3 2 3 3
22 16 15 14 15 14 13 12 12 12 9 9 11 10 10 10 8 8 8 7 7 6 4 2 4 3 4 2 2 1 3 2 3
18 18 17 17 17 16 15 14 14 14 9 11 12 12 11 8 8 8 9 8 7 6 4 2 3 3 2 0 5 3 5 4 4
14 18 19 19 20 20 20 19 17 16 11 13 13 12 12 9 11 10 8 8 7 6 5 5 3 1 2 1 4 7 6 3 4
11 17 17 20 21 21 19 19 18 16 10 12 12 11 11 12 11 9 7 7 6 5 5 4 4 2 1 3 6 7 5 1 1
5 2 9 13 14 17 17 17 16 15 11 13 11 10 11 10 10 8 7 6 6 5 5 5 4 3 2 3 4 8 6 1 3
7 8 3 7 15 20 17 20 19 17 14 13 11 10 7 9 10 9 5 5 6 5 4 4 5 5 4 4 3 8 6 2 3
10 13 12 7 12 16 12 4 16 18 18 16 13 11 8 8 7 11 9 8 7 4 3 3 3 2 5 6 5 9 9 5 1
8 11 15 19 20 21 14 19 19 27 7 15 14 11 11 9 7 8 7 5 3 3 3 3 1 2 2 3 6 7 8 8 3
12 13 15 10 9 9 6 17 16 23 31 15 9 7 6 6 5 4 5 7 4 3 3 3 3 3 4 4 5 8 10 11 9
14 13 13 9 10 8 8 14 18 15 5 2 9 14 8 6 5 4 5 6 4 3 5 5 4 4 4 5 5 6 13 12 10
13 14 13 11 13 10 10 13 16 17 16 11 5 3 9 7 5 5 5 4 4 5 5 5 5 3 3 4 2 3 3 4 4
13 17 13 11 12 11 7 5 4 7 9 10 10 7 6 7 6 7 6 5 6 6 6 6 5 5 4 5 3 3 8 8 5
13 12 12 11 13 10 5 6 7 6 7 7 7 6 5 5 4 5 5 5 5 10 9 10 7 6 4 2 3 11 11 11 11
15 13 12 7 8 10 8 5 4 3 5 6 5 2 4 3 4 5 5 4 5 5 5 6 4 4 4 6 7 7 5 7 7
Wind_Direction
135 149 151 144 150 140 147 141 145 148 153 158 165 173 174 180 181 165 147 129 134 141 130 130 91 88 87 70 58 40 14 29 50
145 147 147 142 142 142 147 147 152 155 157 159 166 167 175 164 147 123 125 115 119 97 101 109 87 95 86 79 73 56 33 51 35
131 131 140 139 142 142 147 144 144 152 158 162 168 169 164 165 142 125 124 109 106 110 110 104 97 102 117 119 121 99 69 43 13
142 140 147 147 147 144 148 139 144 151 155 165 178 171 166 142 136 139 121 113 116 125 119 122 122 107 115 116 102 75 50 355 159
147 149 153 152 150 150 156 153 152 162 165 180 185 168 151 147 145 133 125 130 126 121 123 128 135 132 143 117 115 100 20 37 33
107 143 149 150 149 155 158 157 160 167 176 187 164 146 149 135 140 131 137 138 136 129 138 150 140 139 132 131 142 148 90 91 51
152 223 161 154 159 159 159 161 165 173 186 162 155 142 136 139 141 140 135 135 139 139 152 134 152 162 186 154 194 160 141 63 39
176 179 165 164 167 166 166 166 174 172 178 155 146 138 139 154 139 138 131 129 135 142 142 164 115 108 75 83 66 49 83 34 20
166 174 177 174 172 172 172 171 175 173 171 157 151 144 149 136 130 132 133 136 146 150 155 140 128 135 157 206 127 118 94 78 8
164 190 184 182 177 178 177 175 169 172 159 152 156 140 142 139 135 131 134 136 148 160 166 160 168 183 128 65 140 150 147 125 12
13 67 199 187 177 180 178 170 164 162 144 147 146 138 143 141 131 128 134 145 165 168 167 166 166 199 173 143 187 187 169 201 321
328 317 286 211 182 179 172 169 163 151 141 132 124 139 137 138 136 121 135 172 191 198 179 172 170 178 211 206 150 167 177 186 322
358 14 356 249 190 183 156 63 144 140 145 140 137 137 147 140 152 154 171 187 187 170 168 177 173 175 175 155 155 184 190 179 248
47 40 24 20 88 86 68 55 42 5 246 130 132 137 155 149 168 153 160 169 156 156 154 128 85 159 193 191 181 199 181 188 197
63 47 40 59 53 58 94 102 56 343 295 79 46 52 41 63 102 119 127 138 139 147 162 187 213 226 259 237 229 174 193 197 203
72 62 58 67 90 76 58 88 134 129 295 284 164 135 136 133 138 123 157 138 158 194 220 209 227 215 242 247 222 198 192 194 208
71 75 72 68 63 76 87 120 152 164 171 185 148 168 152 136 158 177 171 169 173 209 222 228 227 220 234 262 198 165 166 184 204
83 83 89 92 94 92 97 141 184 179 177 173 162 158 146 175 181 178 179 192 201 211 224 196 193 196 177 128 131 200 172 171 191
74 88 108 108 113 120 128 181 174 168 158 142 150 172 188 197 186 190 180 202 235 249 231 210 208 202 164 251 200 171 174 187 194
82 81 86 94 119 102 159 211 163 154 136 152 177 176 230 229 196 166 189 203 203 210 288 217 269 294 243 210 219 205 204 182 163